Change the Weather History Date:

Friday, December 27, 2013

  Actual Average Record
Temperature  
Mean Temperature 25 °F 28 °F  
Max Temperature 32 °F 35 °F 52 °F (1949)
Min Temperature 18 °F 21 °F -11 °F (1950)
Degree Days  
Heating Degree Days 40 37  
Month to date heating degree days 938 899  
Since 1 July heating degree days 2181 2144  
Cooling Degree Days 0 0  
Month to date cooling degree days 0 0  
Year to date cooling degree days 863 702  
Moisture  
Dew Point 20 °F    
Average Humidity 78    
Maximum Humidity 92    
Minimum Humidity 63    
Precipitation  
Precipitation 0.00 in 0.08 in 1.22 in (1904)
Month to date precipitation 2.55 2.63  
Year to date precipitation 31.60 40.98  
Snow  
Snow 0.00 in - - ()
Month to date snowfall 14.1  
Since 1 July snowfall 16.3  
Snow Depth 1.00 in    
Sea Level Pressure  
Sea Level Pressure 30.32 in    
Wind  
Wind Speed 1 mph (ENE)    
Max Wind Speed 8 mph    
Max Gust Speed 21 mph    
Visibility 9 miles    
Events      
T = Trace of Precipitation, MM = Missing Value Source: NWS Daily Summary

Daily Weather History Graph

Daily Weather History Graph

Search for Another Location

Airport or City:

Trip Planner

Search our weather history database for the weather conditions in past years. The results will help you decide how hot, cold, wet, or windy it might be!

Date:

Astronomy

Dec. 27, 2013 Rise Set
Actual Time 7:32 AM EST 4:45 PM EST
Civil Twilight 7:01 AM EST 5:16 PM EST
Nautical Twilight 6:26 AM EST 5:51 PM EST
Astronomical Twilight 5:52 AM EST 6:25 PM EST
Moon 1:59 AM EST (12/27) 12:56 PM EST (12/27)
Length of Visible Light 10h 15m
Length of Day
9h 13m
Waning Crescent, 28% of the Moon is Illuminated
Dec 27
Waning Crescent
Jan 1
New
Jan 7
First Quarter
Jan 15
Full
Jan 24
Last Quarter

Hourly Weather History & Observations

Time (EST) Temp. Windchill Dew Point Humidity Pressure Visibility Wind Dir Wind Speed Gust Speed Precip Events Conditions
12:54 AM 24.1 °F - 21.0 °F 88% 30.32 in 10.0 mi Calm Calm - N/A   Overcast
1:54 AM 27.0 °F 19.5 °F 18.0 °F 69% 30.34 in 10.0 mi West 6.9 mph - N/A   Mostly Cloudy
2:54 AM 21.9 °F 17.2 °F 17.1 °F 82% 30.35 in 10.0 mi NNW 3.5 mph - N/A   Clear
3:54 AM 19.9 °F 14.9 °F 16.0 °F 85% 30.35 in 10.0 mi North 3.5 mph - N/A   Overcast
4:54 AM 21.9 °F - 18.0 °F 85% 30.35 in 10.0 mi Calm Calm - N/A   Overcast
5:54 AM 21.9 °F 17.2 °F 18.0 °F 85% 30.35 in 10.0 mi NNE 3.5 mph - N/A   Overcast
6:54 AM 21.0 °F - 17.1 °F 85% 30.35 in 7.0 mi Calm Calm - N/A   Mostly Cloudy
7:54 AM 19.9 °F - 16.0 °F 85% 30.35 in 6.0 mi Calm Calm - N/A   Overcast
8:54 AM 21.9 °F - 18.0 °F 85% 30.34 in 8.0 mi Calm Calm - N/A   Overcast
9:54 AM 25.0 °F - 19.0 °F 78% 30.34 in 9.0 mi Calm Calm - N/A   Overcast
10:54 AM 27.0 °F - 19.9 °F 75% 30.35 in 10.0 mi Calm Calm - N/A   Overcast
11:54 AM 28.0 °F 22.8 °F 19.9 °F 72% 30.34 in 10.0 mi ESE 4.6 mph - N/A   Overcast
12:54 PM 30.9 °F - 19.0 °F 61% 30.32 in 10.0 mi Calm Calm - N/A   Overcast
1:54 PM 30.9 °F 27.5 °F 19.9 °F 64% 30.30 in 10.0 mi SE 3.5 mph - N/A   Overcast
2:54 PM 32.0 °F 27.5 °F 21.9 °F 66% 30.30 in 10.0 mi ESE 4.6 mph - N/A   Overcast
3:54 PM 32.0 °F 28.7 °F 23.0 °F 69% 30.30 in 10.0 mi East 3.5 mph - N/A   Overcast
4:54 PM 32.0 °F - 21.9 °F 66% 30.31 in 10.0 mi Calm Calm - N/A   Overcast
5:54 PM 30.9 °F - 23.0 °F 72% 30.32 in 10.0 mi Calm Calm - N/A   Overcast
6:54 PM 28.9 °F - 21.9 °F 75% 30.33 in 10.0 mi Calm Calm - N/A   Partly Cloudy
7:54 PM 28.0 °F - 23.0 °F 81% 30.33 in 9.0 mi Calm Calm - N/A   Clear
8:54 PM 28.0 °F - 23.0 °F 81% 30.32 in 9.0 mi Calm Calm - N/A   Partly Cloudy
9:54 PM 25.0 °F - 21.9 °F 88% 30.30 in 7.0 mi Calm Calm - N/A   Clear
10:54 PM 21.9 °F - 19.9 °F 92% 30.29 in 5.0 mi Calm Calm - N/A   Clear
11:35 PM 23.0 °F - 21.2 °F 93% 30.26 in 1.5 mi Calm Calm - N/A   Clear
11:48 PM 21.2 °F - 19.4 °F 93% 30.25 in 3.0 mi Calm Calm - N/A   Clear
11:54 PM 21.9 °F - 19.9 °F 92% 30.27 in 5.0 mi Calm Calm - N/A   Clear